Stations météo

réclame
Mon MeteoGroup
Dalwhinnie, Grande-Bretagne (99005): Température de l'air & dewpoint: 15.02.2019 14:00:00 - 21.02.2019 14:00:00 (GMT)Dalwhinnie, Grande-Bretagne (99005): Quantités de précipitations: 15.02.2019 14:00:00 - 21.02.2019 14:00:00 (GMT)
Date & Time tt [°C] td [°C] rr [mm]
21.02.2019 14:00:00 10,5 8,6 0,0
21.02.2019 13:00:00 10,4 8,9 0,0
21.02.2019 12:00:00 10,9 8,7 0,0
21.02.2019 11:00:00 11,3 9,1 0,0
21.02.2019 10:00:00 10,7 9,2 0,0
21.02.2019 09:00:00 8,9 8,1 0,0
21.02.2019 08:00:00 9,4 8,1 0,0
21.02.2019 07:00:00 9,1 7,9 0,0
21.02.2019 06:00:00 8,9 7,8 0,0
21.02.2019 05:00:00 8,3 7,4 0,0
21.02.2019 04:00:00 8,5 7,4 0,0
21.02.2019 03:00:00 8,3 7,0 0,0
21.02.2019 02:00:00 8,5 5,5 0,0
21.02.2019 01:00:00 7,6 4,1 0,0
21.02.2019 00:00:00 8,5 4,8 0,0
20.02.2019 23:00:00 8,6 5,3 0,0
20.02.2019 22:00:00 8,4 5,1 0,0
20.02.2019 21:00:00 8,1 5,6 0,0
20.02.2019 20:00:00 7,2 6,0 0,0
20.02.2019 19:00:00 7,5 5,4 0,0
20.02.2019 18:00:00 7,6 5,5 0,0
20.02.2019 17:00:00 8,4 5,8 0,0
20.02.2019 16:00:00 8,4 6,9 0,0
20.02.2019 15:00:00 - - -
20.02.2019 14:00:00 - - -
20.02.2019 13:00:00 - - -
20.02.2019 12:00:00 8,7 7,3 0,0
20.02.2019 11:00:00 8,4 6,9 0,0
20.02.2019 10:00:00 8,1 6,6 0,2
20.02.2019 09:00:00 7,9 6,6 0,2
20.02.2019 08:00:00 8,1 6,6 0,2
20.02.2019 07:00:00 7,7 6,3 0,0
20.02.2019 06:00:00 7,0 5,9 0,0
20.02.2019 05:00:00 6,7 5,3 0,2
20.02.2019 04:00:00 6,4 4,9 0,2
20.02.2019 03:00:00 5,8 4,1 0,0
20.02.2019 02:00:00 6,2 4,2 0,0
20.02.2019 01:00:00 5,5 3,6 0,6
20.02.2019 00:00:00 5,2 3,4 0,0
19.02.2019 23:00:00 4,2 2,9 0,0
19.02.2019 22:00:00 3,9 2,2 0,6
19.02.2019 21:00:00 3,8 1,9 0,4
19.02.2019 20:00:00 3,7 1,8 0,2
19.02.2019 19:00:00 4,0 1,7 0,0
19.02.2019 18:00:00 4,4 1,4 0,0
19.02.2019 17:00:00 4,5 1,6 0,0
19.02.2019 16:00:00 4,9 2,0 0,0
19.02.2019 15:00:00 5,0 2,4 0,0
19.02.2019 14:00:00 4,9 2,9 0,0
19.02.2019 13:00:00 4,9 3,6 0,0
19.02.2019 12:00:00 4,9 3,6 0,0
19.02.2019 11:00:00 4,8 3,0 0,0
19.02.2019 10:00:00 4,3 2,4 0,0
19.02.2019 09:00:00 3,7 1,9 0,0
19.02.2019 08:00:00 3,1 1,0 0,0
19.02.2019 07:00:00 4,0 0,8 0,0
19.02.2019 06:00:00 3,6 1,2 0,0
19.02.2019 05:00:00 3,5 1,6 0,0
19.02.2019 04:00:00 3,8 1,5 0,2
19.02.2019 03:00:00 3,6 1,3 0,0
19.02.2019 02:00:00 3,8 1,9 0,0
19.02.2019 01:00:00 4,3 1,9 0,0
19.02.2019 00:00:00 4,6 2,4 0,0
18.02.2019 23:00:00 4,7 2,2 0,0
18.02.2019 22:00:00 4,7 1,8 0,0
18.02.2019 21:00:00 4,5 2,0 0,0
18.02.2019 20:00:00 4,4 2,1 0,0
18.02.2019 19:00:00 4,3 2,2 0,4
18.02.2019 18:00:00 3,9 2,6 0,4
18.02.2019 17:00:00 3,8 1,9 1,6
18.02.2019 16:00:00 4,3 2,8 0,2
18.02.2019 15:00:00 3,4 2,1 2,8
18.02.2019 14:00:00 4,2 2,9 0,4
18.02.2019 13:00:00 4,1 2,3 0,6
18.02.2019 12:00:00 4,2 2,6 0,4
18.02.2019 11:00:00 4,9 1,9 0,0
18.02.2019 10:00:00 4,3 1,9 0,2
18.02.2019 09:00:00 4,2 1,2 0,0
18.02.2019 08:00:00 4,5 0,0 0,0
18.02.2019 07:00:00 4,1 0,6 0,0
18.02.2019 06:00:00 4,6 0,3 0,0
18.02.2019 05:00:00 4,7 1,5 0,0
18.02.2019 04:00:00 4,4 2,7 0,2
18.02.2019 03:00:00 4,7 2,2 0,0
18.02.2019 02:00:00 5,2 2,0 1,0
18.02.2019 01:00:00 4,9 3,0 0,0
18.02.2019 00:00:00 5,0 3,1 2,4
17.02.2019 23:00:00 4,4 2,7 1,4
17.02.2019 22:00:00 5,0 3,2 1,6
17.02.2019 21:00:00 5,4 3,3 0,4
17.02.2019 20:00:00 5,7 3,0 0,2
17.02.2019 19:00:00 6,0 2,8 0,0
17.02.2019 18:00:00 5,8 1,8 0,0
17.02.2019 17:00:00 5,7 3,3 0,0
17.02.2019 16:00:00 5,9 3,3 1,0
17.02.2019 15:00:00 6,6 4,8 1,2
17.02.2019 14:00:00 7,5 5,2 0,4
17.02.2019 13:00:00 7,4 5,3 1,0
17.02.2019 12:00:00 7,7 5,3 0,8
17.02.2019 11:00:00 - - -
17.02.2019 10:00:00 8,6 4,7 0,0
17.02.2019 09:00:00 8,5 4,6 0,0
17.02.2019 08:00:00 8,6 5,2 0,0
17.02.2019 07:00:00 8,1 5,4 0,0
17.02.2019 06:00:00 8,5 5,3 0,0
17.02.2019 05:00:00 8,4 5,6 0,0
17.02.2019 04:00:00 8,2 6,2 0,0
17.02.2019 03:00:00 8,4 6,3 0,0
17.02.2019 02:00:00 8,3 6,5 0,0
17.02.2019 01:00:00 8,0 5,7 0,0
17.02.2019 00:00:00 7,7 4,4 0,0
16.02.2019 23:00:00 7,5 3,6 0,0
16.02.2019 22:00:00 6,9 3,7 0,0
16.02.2019 21:00:00 6,6 3,9 0,0
16.02.2019 20:00:00 6,6 3,9 0,0
16.02.2019 19:00:00 6,5 3,3 0,0
16.02.2019 18:00:00 6,5 3,0 0,0
16.02.2019 17:00:00 6,4 2,6 0,0
16.02.2019 16:00:00 6,5 2,1 0,2
16.02.2019 15:00:00 6,4 3,9 0,0
16.02.2019 14:00:00 6,8 4,7 0,0
16.02.2019 13:00:00 7,0 4,3 0,0
16.02.2019 12:00:00 6,8 4,7 0,0
16.02.2019 11:00:00 6,3 5,3 0,2
16.02.2019 10:00:00 6,9 5,8 0,0
16.02.2019 09:00:00 6,3 5,2 0,0
16.02.2019 08:00:00 6,2 5,2 0,0
16.02.2019 07:00:00 6,2 5,4 0,0
16.02.2019 06:00:00 6,4 5,6 0,0
16.02.2019 05:00:00 6,2 5,5 0,2
16.02.2019 04:00:00 6,0 4,7 0,0
16.02.2019 03:00:00 6,4 5,3 0,2
16.02.2019 02:00:00 6,6 4,7 1,6
16.02.2019 01:00:00 6,4 4,2 4,0
16.02.2019 00:00:00 7,4 6,3 1,8
15.02.2019 23:00:00 7,2 5,7 2,2
15.02.2019 22:00:00 7,1 5,5 0,4
15.02.2019 21:00:00 7,6 5,2 0,0
15.02.2019 20:00:00 7,8 5,2 0,0
15.02.2019 19:00:00 7,8 4,8 0,0
15.02.2019 18:00:00 7,1 4,4 0,0
15.02.2019 17:00:00 7,9 4,0 0,0
15.02.2019 16:00:00 8,6 3,8 0,0
15.02.2019 15:00:00 8,3 3,4 0,0
15.02.2019 14:00:00 8,5 3,4 0,0

tt = Température de l'air
td = dewpoint
rr = Quantités de précipitations

stations d'obs. à proximité